Weather History for Chicago Executive, IL

Change the Weather History Date:

Wednesday, March 26, 2014

  Actual Average Record
Temperature  
Mean Temperature 27 °F 41 °F  
Max Temperature 39 °F 50 °F 79 °F (2007)
Min Temperature 15 °F 32 °F 15 °F (2014)
Degree Days  
Heating Degree Days 38 24  
Month to date heating degree days 942 735  
Since 1 July heating degree days 6301 5473  
Cooling Degree Days 0 0  
Month to date cooling degree days 0 0  
Year to date cooling degree days 0 0  
Moisture  
Dew Point 10 °F    
Average Humidity 46    
Maximum Humidity 71    
Minimum Humidity 30    
Precipitation  
Precipitation 0.00 in 0.09 in 0.38 in (2004)
Month to date precipitation 0.29 1.82  
Year to date precipitation 2.42 4.40  
Sea Level Pressure  
Sea Level Pressure 30.23 in    
Wind  
Wind Speed 10 mph (South)    
Max Wind Speed 26 mph    
Max Gust Speed 35 mph    
Visibility 10 miles    
Events      
T = Trace of Precipitation, MM = Missing Value Source: NWS Daily Summary

Daily Weather History Graph

Daily Weather History Graph

Search for Another Location

Airport:

Trip Planner

Search our weather history database for the weather conditions in past years. The results will help you decide how hot, cold, wet, or windy it might be!

Date:

Astronomy

Mar. 26, 2014 Rise Set
Actual Time 6:44 AM CDT 7:10 PM CDT
Civil Twilight 6:16 AM CDT 7:38 PM CDT
Nautical Twilight 5:43 AM CDT 8:11 PM CDT
Astronomical Twilight 5:09 AM CDT 8:45 PM CDT
Moon 3:57 AM CDT 2:44 PM CDT
Length of Visible Light 13h 22m
Length of Day
12h 26m
Waning Crescent, 21% of the Moon is Illuminated
Mar 26
Waning Crescent
Mar 30
New
Apr 7
First Quarter
Apr 15
Full
Apr 22
Last Quarter

Hourly Weather History & Observations

Time (CDT) Temp. Windchill Dew Point Humidity Pressure Visibility Wind Dir Wind Speed Gust Speed Precip Events Conditions
12:52 AM 19.9 °F 12.1 °F 6.1 °F 55% 30.28 in 10.0 mi NNW 5.8 mph - N/A   Clear
1:52 AM 18.0 °F 11.1 °F 5.0 °F 57% 30.29 in 10.0 mi NNW 4.6 mph - N/A   Clear
2:52 AM 18.0 °F 12.7 °F 5.0 °F 57% 30.30 in 10.0 mi North 3.5 mph - N/A   Clear
3:52 AM 18.0 °F - 6.1 °F 60% 30.30 in 10.0 mi Calm Calm - N/A   Clear
4:52 AM 17.1 °F - 6.1 °F 62% 30.30 in 10.0 mi Calm Calm - N/A   Clear
5:52 AM 16.0 °F - 8.1 °F 71% 30.32 in 10.0 mi Calm Calm - N/A   Clear
6:52 AM 16.0 °F - 8.1 °F 71% 30.34 in 10.0 mi Calm Calm - N/A   Clear
7:52 AM 19.0 °F 13.9 °F 9.0 °F 65% 30.35 in 10.0 mi South 3.5 mph - N/A   Clear
8:52 AM 21.9 °F 14.5 °F 5.0 °F 48% 30.35 in 10.0 mi SW 5.8 mph - N/A   Clear
9:52 AM 25.0 °F 14.2 °F 3.9 °F 41% 30.36 in 10.0 mi South 11.5 mph 17.3 mph N/A   Clear
10:52 AM 27.0 °F 17.3 °F 3.9 °F 37% 30.34 in 10.0 mi South 10.4 mph - N/A   Clear
11:52 AM 30.0 °F 20.5 °F 6.1 °F 36% 30.32 in 10.0 mi SW 11.5 mph - N/A   Clear
12:52 PM 33.1 °F 24.9 °F 6.1 °F 32% 30.29 in 10.0 mi South 10.4 mph - N/A   Clear
1:52 PM 34.0 °F 28.0 °F 8.1 °F 34% 30.26 in 10.0 mi SSE 6.9 mph - N/A   Clear
2:52 PM 36.0 °F 28.0 °F 10.0 °F 34% 30.22 in 10.0 mi SSE 11.5 mph - N/A   Clear
3:52 PM 37.9 °F 33.5 °F 9.0 °F 30% 30.19 in 10.0 mi SSW 5.8 mph 21.9 mph N/A   Clear
4:52 PM 39.0 °F 30.3 °F 10.9 °F 32% 30.16 in 10.0 mi South 16.1 mph 20.7 mph N/A   Clear
5:52 PM 37.9 °F 28.2 °F 14.0 °F 38% 30.14 in 10.0 mi South 18.4 mph - N/A   Overcast
6:52 PM 37.0 °F 26.7 °F 16.0 °F 42% 30.12 in 10.0 mi South 19.6 mph 25.3 mph N/A   Overcast
7:52 PM 37.0 °F 27.7 °F 17.1 °F 44% 30.09 in 10.0 mi South 16.1 mph - N/A   Overcast
8:52 PM 37.9 °F 29.6 °F 17.1 °F 43% 30.07 in 10.0 mi South 13.8 mph 21.9 mph N/A   Overcast
9:52 PM 39.0 °F 29.6 °F 16.0 °F 39% 30.05 in 10.0 mi South 18.4 mph 27.6 mph N/A   Overcast
10:52 PM 39.0 °F 29.3 °F 17.1 °F 41% 30.04 in 10.0 mi South 19.6 mph 29.9 mph N/A   Overcast
11:52 PM 39.0 °F 29.9 °F 17.1 °F 41% 30.02 in 10.0 mi South 17.3 mph - N/A   Overcast